Tracking 29799 objects as of 11-Oct-2024
HD Live streaming from Space Station
objects crossing your sky now

STARLINK-30934

Track STARLINK-30934 now!
10-day predictions
STARLINK-30934 is classified as:


NORAD ID: 58395
Int'l Code: 2023-178X
Perigee: 469.4 km
Apogee: 471.7 km
Inclination: 53.2 °
Period: 93.9 minutes
Semi major axis: 6841 km
RCS: Unknown
Launch date: November 20, 2023
Source: United States (US)
Launch site: AIR FORCE WESTERN TEST RANGE (AFWTR)
Your satellite tracking list
Your tracking list is empty




NASA's NSSDC Master Catalog

Two Line Element Set (TLE):
1 58395U 23178X   24284.56665531  .00011590  00000-0  35626-3 0  9999
2 58395  53.1605 234.5592 0001630 107.6708 252.4473 15.34164154 50940
Source of the keplerian elements: AFSPC